Skip Page Navigation
NASA JPL Caltech
NASA Logo - Jet Propulsion Laboratory + View the NASA Portal
+ Center for Near-Earth Object Studies
JPL Home Earth Solar System Stars & Galaxies Technology
JPL Solar System Dynamics
BODIES ORBITS EPHEMERIDES TOOLS PHYSICAL DATA DISCOVERY FAQ SITE MAP
JPL Small-Body Database Browser
Search: [ help ]  
434287 (2003 YX171)
Classification: Main-belt Asteroid          SPK-ID: 2434287
Ephemeris | Orbit Diagram | Orbital Elements | Mission Design | Physical Parameters | Discovery Circumstances | Close-Approach Data ]

[ hide orbit diagram ]

For accurate long-term ephemerides, please instead use our Horizons system.This orbit viewer was implemented using two-body methods, and hence should not be used for determining accurate long-term trajectories (over several years or decades) or planetary encounter circumstances.


[ revert to old Java-based viewer ]

Orbital Elements at Epoch 2459000.5 (2020-May-31.0) TDB
Reference: JPL 15 (heliocentric ecliptic J2000)
 Element Value Uncertainty (1-sigma)   Units 
e .2205213724111828 1.038e-07  
a 2.859421154803998 4.0021e-08 au
q 2.228857677445051 3.1193e-07 au
i 17.67770790314225 8.2216e-06 deg
node 88.17189845547433 4.38e-05 deg
peri 327.8439377865494 5.2341e-05 deg
M 173.2533579427805 3.0609e-05 deg
tp 2458150.547265114549
(2018-Feb-01.04726511)
0.00014184 TDB
period 1766.101322317907
4.84
3.7078e-05
1.015e-07
d
yr
n .2038388145972965 4.2795e-09 deg/d
Q 3.489984632162944 4.8847e-08 au
  Orbit Determination Parameters
   # obs. used (total)      79  
   data-arc span      5589 days (15.30 yr)  
   first obs. used      2003-12-18  
   last obs. used      2019-04-07  
   planetary ephem.      DE431  
   SB-pert. ephem.      SB431-N16  
   condition code      0  
   norm. resid. RMS      .6648  
   source      ORB  
   producer      Otto Matic  
   solution date      2019-Jul-13 22:12:55  

Additional Information
 Earth MOID = 1.26008 au 
 Jupiter MOID = 1.89043 au 
 T_jup = 3.198 
[ show covariance matrix ]

Ephemeris | Orbit Diagram | Orbital Elements | Mission Design | Physical Parameters | Discovery Circumstances | Close-Approach Data ]

Physical Parameter Table
Parameter Symbol Value Units Sigma Reference Notes
absolute magnitude H 16.5   n/a MPO472393  

434287 (2003 YX171)          Discovered 2003-Dec-18 by Spacewatch at Kitt Peak
Reference: Last Updated: 2015-06-04

[ show close-approach data ]
Alternate Designations
 2003 YX171 = 2009 AU50 
Ephemeris | Orbit Diagram | Orbital Elements | Mission Design | Physical Parameters | Discovery Circumstances | Close-Approach Data ]
ABOUT SSD CREDITS/AWARDS PRIVACY/COPYRIGHT GLOSSARY LINKS
FirstGov 2020-Aug-10 21:58 UT
(server date/time)  
NASA Home Page
Site Manager:   Ryan S. Park
Webmaster  Alan B. Chamberlin